Location: *
(46.0770°N, 1.6444°E)
Time: 00:45:02
(UTC+00:00)

Cosmos 389 Rocket - Pass Details

Date: 16 September 2019
Orbit: 444 x 478 km, 81.1° (Epoch: 20 October)

Event Time Altitude Azimuth Distance (km) Brightness Sun altitude
Rises 20:33:06 0° 338° (NNW) 2,457 7.0 -25.2°
Reaches altitude 10° 20:35:22 10° 326° (NW) 1,577 6.0 -25.5°
Maximum altitude 20:38:18 27° 267° (W) 897 4.3 -25.9°
Enters shadow 20:38:20 27° 266° (W) 897 4.3 -25.9°
